Location: Moydans
(44.3997°N, 5.5038°E)
Time: 02:17:49
(UTC+02:00)

Envisat - Visible Passes

Search period start: 27 September 2021 00:00
Search period end: 07 October 2021 00:00
Orbit: 764 x 766 km, 98.2° (Epoch: 26 September)

Date Brightness Start Highest point End Pass type
(mag) Time Alt. Az. Time Alt. Az. Time Alt. Az.
27 Sep 4.2 06:24:58 10° NNE 06:29:52 46° E 06:34:44 10° S visible
28 Sep 5.5 05:48:52 10° NE 05:52:46 22° E 05:56:39 10° SE visible
29 Sep 3.2 06:50:09 10° NNE 06:55:16 80° ESE 07:00:21 10° S visible
30 Sep 4.6 06:13:36 10° NNE 06:18:18 37° E 06:22:59 10° SSE visible
01 Oct 5.9 05:37:48 10° NE 05:41:08 17° E 05:44:27 10° SE visible
02 Oct 3.5 06:38:41 10° NNE 06:43:44 64° E 06:48:46 10° S visible
03 Oct 5.0 06:02:17 10° NE 06:06:43 29° E 06:11:06 10° SSE visible
04 Oct 6.0 05:26:58 10° ENE 05:29:29 14° E 05:31:59 10° ESE visible
04 Oct 3.0 07:03:59 10° N 07:09:05 77° WNW 07:14:08 10° SSW visible
05 Oct 4.0 06:27:14 10° NNE 06:32:12 50° E 06:37:07 10° S visible
06 Oct 5.4 05:51:03 10° NE 05:55:06 23° E 05:59:07 10° SE visible
